Location: Hopewell Observatory
(38.8698°N, 77.6988°W)
Time: 06:43:56
(UTC-04:00)

H-2A R/B - Pass Details

Date: 26 May 2018
Orbit: 735 x 836 km, 98.3° (Epoch: 18 June)

Event Time Altitude Azimuth Distance (km) Brightness Sun altitude
Exits shadow 21:48:25 20° 143° (SE) 1,655 3.1 -13.9°
Maximum altitude 21:51:39 54° 73° (ENE) 908 2.2 -14.3°
Drops below altitude 10° 21:56:34 10° 357° (N) 2,303 5.2 -15.0°
Sets 21:58:56 0° 353° (N) 3,248 6.1 -15.4°
